User: anonymous   Login
Location: Unspecified
(0.0000°N, 0.0000°E)
Time: 00:51:58
(UTC+00:00)
Language:

ELEKTRO-L - Orbit

View from above orbital plane
View from above orbital plane
View from above satellite
View from above satellite

Ground track
Ground track

The orbit data is extracted from the following two-line orbital elements,

1 37344U 11001A   17084.89148696 -.00000240 +00000-0 +00000-0 0  9992
2 37344 002.2677 078.2207 0004618 277.0145 118.0064 01.00229937022678
Epoch (UTC): 25 March 2017 21:23:44
Eccentricity: 0.0004618
inclination: 2.2677°
perigee height: 35778 km
apogee height: 35817 km
right ascension of ascending node: 78.2207°
argument of perigee: 277.0145°
revolutions per day: 1.00229937
mean anomaly at epoch: 118.0064°
orbit number at epoch: 2267

The dashed part of the orbit path shows where the satellite is in the earth's shadow,  

DLR